Date String (YYYY-MM-DD hh:mm:ss) UTC,Instrument flags,Ambient pressure (hPa),Sample flow (lpm),Bypass flow (lpm),Sample temperature (°C),Ambient temperature (°C),ASC tube jacket temperature (°C),LED temperature (°C),Box temperature (°C),Sample RH (%),Mass concentration (μg/m³),Mass concentration (μg/m³)
DateTimeUTC,F1_M11,P_M11,Q1_M11,Q2_M11,T1_M11,T2_M11,T3_M11,T4_M11,T5_M11,U1_M11,X2_M11,X0_M11
2021-08-14 07:00:00,,0834.5,4.99,0.00,29.4,27.0,00.0,38.6,31.0,32.2,0013.14,0031.40
2021-08-14 07:01:00,,0834.5,5.00,0.00,29.4,27.3,00.0,38.6,31.1,32.5,0013.14,0030.82
2021-08-14 07:02:00,,0834.4,5.01,0.00,29.4,27.6,00.0,38.6,31.2,32.5,0013.14,0030.58
2021-08-14 07:03:00,,0834.5,4.99,0.00,29.4,27.9,00.0,38.6,31.2,32.4,0013.11,0030.26
2021-08-14 07:04:00,,0834.5,5.00,0.00,29.5,28.1,00.0,38.6,31.3,32.3,0013.04,0029.96
2021-08-14 07:05:00,,0834.5,5.02,0.00,29.5,28.2,00.0,38.6,31.3,32.3,0013.00,0030.41
2021-08-14 07:06:00,,0834.5,5.00,0.00,29.5,28.4,00.0,38.6,31.3,32.5,0012.93,0029.68
2021-08-14 07:07:00,,0834.5,4.99,0.00,29.6,28.5,00.0,38.6,31.4,32.4,0012.92,0029.49
2021-08-14 07:08:00,,0834.5,5.01,0.00,29.6,28.6,00.0,38.6,31.4,32.3,0012.90,0029.15
2021-08-14 07:09:00,,0834.5,4.99,0.00,29.6,28.6,00.0,38.6,31.5,32.3,0012.80,0027.70
2021-08-14 07:10:00,,0834.5,5.01,0.00,29.7,28.7,00.0,38.6,31.5,32.1,0012.78,0027.37
2021-08-14 07:11:00,,0834.5,4.99,0.00,29.7,28.8,00.0,38.7,31.5,32.2,0012.82,0028.16
2021-08-14 07:12:00,,0834.5,5.01,0.00,29.7,28.8,00.0,38.7,31.6,32.3,0012.79,0029.25
2021-08-14 07:13:00,,0834.5,4.99,0.00,29.8,28.9,00.0,38.7,31.6,32.1,0012.79,0029.35
2021-08-14 07:14:00,,0834.5,5.01,0.00,29.8,28.9,00.0,38.7,31.7,32.4,0012.77,0029.63
2021-08-14 07:15:00,,0834.5,4.99,0.00,29.8,28.9,00.0,38.8,31.7,31.9,0012.84,0029.79
2021-08-14 07:16:00,,0834.5,4.99,0.00,29.8,27.5,00.0,38.8,31.3,31.9,0012.88,0029.92
2021-08-14 07:17:00,,0834.5,5.00,0.00,29.6,25.8,00.0,38.7,30.8,32.2,0012.85,0029.31
2021-08-14 07:18:00,,0834.5,5.01,0.00,29.4,25.4,00.0,38.7,30.7,32.6,0012.70,0028.57
2021-08-14 07:19:00,,0834.6,5.00,0.00,29.3,25.8,00.0,38.6,30.8,33.1,0012.62,0029.08
2021-08-14 07:20:00,,0834.5,5.01,0.00,29.3,26.3,00.0,38.6,30.8,32.8,0012.62,0029.83
2021-08-14 07:21:00,,0834.5,4.99,0.00,29.3,26.7,00.0,38.6,30.9,33.1,0012.53,0030.04
2021-08-14 07:22:00,,0834.5,5.00,0.00,29.3,27.1,00.0,38.5,31.0,32.9,0012.51,0028.51
2021-08-14 07:23:00,,0834.5,5.02,0.00,29.3,27.4,00.0,38.5,31.0,33.0,0012.48,0027.57
2021-08-14 07:24:00,,0834.5,4.98,0.00,29.3,27.6,00.0,38.5,31.1,32.9,0012.36,0026.97
2021-08-14 07:25:00,,0834.5,5.01,0.00,29.3,27.8,00.0,38.5,31.1,33.0,0012.31,0026.89
2021-08-14 07:26:00,,0834.5,4.99,0.00,29.4,28.0,00.0,38.5,31.1,32.9,0012.25,0026.30
2021-08-14 07:27:00,,0834.5,5.00,0.00,29.4,28.2,00.0,38.5,31.2,32.9,0012.15,0024.87
2021-08-14 07:28:00,,0834.5,5.01,0.00,29.4,28.3,00.0,38.5,31.3,32.8,0012.15,0025.45
2021-08-14 07:29:00,,0834.6,5.00,0.00,29.5,28.4,00.0,38.5,31.3,32.8,0012.15,0025.92
2021-08-14 07:30:00,,0834.6,5.00,0.00,29.5,28.5,00.0,38.5,31.3,32.6,0012.08,0025.35
2021-08-14 07:31:00,,0834.6,5.01,0.00,29.5,28.6,00.0,38.5,31.4,32.5,0012.12,0024.80
2021-08-14 07:32:00,,0834.6,5.00,0.00,29.6,28.6,00.0,38.6,31.4,32.3,0012.18,0024.67
2021-08-14 07:33:00,,0834.6,5.01,0.00,29.6,28.7,00.0,38.6,31.5,32.3,0012.18,0024.70
2021-08-14 07:34:00,,0834.5,4.99,0.00,29.6,28.8,00.0,38.6,31.5,32.5,0012.27,0024.73
2021-08-14 07:35:00,,0834.5,5.01,0.00,29.7,28.8,00.0,38.6,31.5,32.4,0012.41,0024.87
2021-08-14 07:36:00,,0834.5,4.99,0.00,29.7,28.9,00.0,38.7,31.6,32.2,0012.43,0023.87
2021-08-14 07:37:00,,0834.4,5.00,0.00,29.7,28.9,00.0,38.7,31.6,32.2,0012.35,0023.23
2021-08-14 07:38:00,,0834.5,5.01,0.00,29.8,29.0,00.0,38.7,31.7,32.0,0012.39,0023.63
2021-08-14 07:39:00,,0834.5,4.99,0.00,29.8,28.9,00.0,38.7,31.6,31.9,0012.44,0023.80
2021-08-14 07:40:00,,0834.4,5.02,0.00,29.8,27.5,00.0,38.7,31.3,31.6,0012.47,0023.73
2021-08-14 07:41:00,,0834.4,4.98,0.00,29.6,26.4,00.0,38.7,31.0,31.7,0012.57,0024.60
2021-08-14 07:42:00,,0834.5,5.01,0.00,29.5,26.4,00.0,38.7,31.0,31.9,0012.55,0025.17
2021-08-14 07:43:00,,0834.4,5.01,0.00,29.5,26.8,00.0,38.7,31.0,32.0,0012.56,0024.74
2021-08-14 07:44:00,,0834.4,4.99,0.00,29.4,27.1,00.0,38.6,31.1,32.0,0012.55,0024.50
2021-08-14 07:45:00,,0834.4,5.01,0.00,29.4,27.5,00.0,38.6,31.2,32.2,0012.44,0024.05
2021-08-14 07:46:00,,0834.5,4.99,0.00,29.5,27.7,00.0,38.6,31.2,32.6,0012.40,0023.82
2021-08-14 07:47:00,,0834.5,5.00,0.00,29.5,28.0,00.0,38.6,31.3,32.7,0012.46,0025.00
2021-08-14 07:48:00,,0834.5,5.00,0.00,29.5,28.2,00.0,38.6,31.3,32.8,0012.51,0026.03
2021-08-14 07:49:00,,0834.4,4.99,0.00,29.5,28.3,00.0,38.6,31.4,32.7,0012.57,0027.17
2021-08-14 07:50:00,,0834.4,5.00,0.00,29.6,28.4,00.0,38.6,31.4,32.7,0012.49,0026.56
2021-08-14 07:51:00,,0834.4,4.99,0.00,29.6,28.5,00.0,38.6,31.4,32.7,0012.54,0026.84
2021-08-14 07:52:00,,0834.4,5.01,0.00,29.6,28.6,00.0,38.7,31.5,32.8,0012.59,0026.56
2021-08-14 07:53:00,,0834.5,4.99,0.00,29.7,28.7,00.0,38.7,31.5,32.8,0012.68,0026.48
2021-08-14 07:54:00,,0834.4,5.01,0.00,29.7,28.8,00.0,38.7,31.6,33.0,0012.69,0026.59
2021-08-14 07:55:00,,0834.4,4.99,0.00,29.7,28.8,00.0,38.7,31.6,34.2,0012.75,0027.01
2021-08-14 07:56:00,,0834.5,5.00,0.00,29.8,28.9,00.0,38.7,31.6,34.2,0012.91,0027.66
2021-08-14 07:57:00,,0834.5,5.01,0.00,29.8,29.0,00.0,38.7,31.7,34.4,0012.98,0028.29
2021-08-14 07:58:00,,0834.5,5.00,0.00,29.8,29.0,00.0,38.8,31.7,34.4,0012.97,0028.02
2021-08-14 07:59:00,,0834.4,5.00,0.00,29.9,29.0,00.0,38.8,31.7,34.4,0013.05,0027.38
